AVA9277 SKMR-SKRG

Flight info

Callsign AVA9277
Flight time 0h 35m
Altitude 23000
Route AKPEK2E AKPEK AKPEK4C
Aircraft A320/M-SDE3FGHIRWY/LB1

Departure

Time 2026-05-06 15:42
Airport Los Garzones Airport (SKMR)

Arrival

Time 2026-05-06 16:17
Airport Jose Maria Córdova International Airport (SKRG)
Time Latitude Longitude Altitude Speed Heading
2026-05-06 15:17 8.82486 -75.82498 32 ft 0 kts 47°
2026-05-06 15:34 8.82486 -75.82499 32 ft 2 kts 47°
2026-05-06 15:34 8.82470 -75.82513 32 ft 3 kts 32°
2026-05-06 15:34 8.82451 -75.82522 32 ft 3 kts
2026-05-06 15:34 8.82430 -75.82518 32 ft 3 kts 327°
2026-05-06 15:35 8.82420 -75.82511 32 ft 0 kts 318°
2026-05-06 15:37 8.82421 -75.82511 32 ft 1 kts 318°
2026-05-06 15:38 8.82448 -75.82539 30 ft 9 kts 308°
2026-05-06 15:38 8.82459 -75.82617 31 ft 15 kts 271°
2026-05-06 15:38 8.82407 -75.82631 30 ft 14 kts 135°
2026-05-06 15:38 8.82324 -75.82552 30 ft 19 kts 138°
2026-05-06 15:39 8.82213 -75.82452 31 ft 23 kts 138°
2026-05-06 15:39 8.82080 -75.82330 30 ft 28 kts 137°
2026-05-06 15:39 8.81935 -75.82198 29 ft 29 kts 137°
2026-05-06 15:39 8.81786 -75.82064 28 ft 29 kts 138°
2026-05-06 15:40 8.81648 -75.81936 29 ft 23 kts 137°
2026-05-06 15:40 8.81579 -75.81853 28 ft 7 kts 157°
2026-05-06 15:40 8.81574 -75.81865 28 ft 2 kts 284°
2026-05-06 15:40 8.81583 -75.81878 28 ft 2 kts 314°
2026-05-06 15:41 8.81585 -75.81881 28 ft 0 kts 315°
2026-05-06 15:41 8.81743 -75.82025 28 ft 74 kts 319°
2026-05-06 15:41 8.82312 -75.82543 33 ft 143 kts 318°
2026-05-06 15:41 8.83103 -75.83262 579 ft 157 kts 317°
2026-05-06 15:42 8.83833 -75.84110 1285 ft 167 kts 295°
2026-05-06 15:42 8.83925 -75.85329 1753 ft 188 kts 255°
2026-05-06 15:42 8.83390 -75.86585 2293 ft 208 kts 232°
2026-05-06 15:42 8.82148 -75.87446 2774 ft 233 kts 193°
2026-05-06 15:43 8.80449 -75.87518 3328 ft 258 kts 177°
2026-05-06 15:43 8.78641 -75.87399 4187 ft 269 kts 175°
2026-05-06 15:43 8.76762 -75.87241 5215 ft 273 kts 175°
2026-05-06 15:43 8.74847 -75.87077 6248 ft 278 kts 175°
2026-05-06 15:44 8.72910 -75.86917 7255 ft 281 kts 175°
2026-05-06 15:44 8.70941 -75.86762 8221 ft 286 kts 175°
2026-05-06 15:44 8.68938 -75.86611 9149 ft 291 kts 175°
2026-05-06 15:44 8.66906 -75.86463 10069 ft 295 kts 175°
2026-05-06 15:45 8.64778 -75.86310 10500 ft 318 kts 175°
2026-05-06 15:45 8.62489 -75.86144 10822 ft 341 kts 175°
2026-05-06 15:45 8.60065 -75.85972 11326 ft 355 kts 175°
2026-05-06 15:45 8.57576 -75.85799 12064 ft 361 kts 175°
2026-05-06 15:46 8.55047 -75.85624 12845 ft 366 kts 174°
2026-05-06 15:46 8.52490 -75.85444 13609 ft 371 kts 174°
2026-05-06 15:46 8.49898 -75.85261 14355 ft 376 kts 174°
2026-05-06 15:46 8.47274 -75.85075 15076 ft 380 kts 174°
2026-05-06 15:47 8.44617 -75.84887 15778 ft 385 kts 174°
2026-05-06 15:47 8.41930 -75.84695 16469 ft 389 kts 173°
2026-05-06 15:47 8.39211 -75.84500 17132 ft 394 kts 173°
2026-05-06 15:47 8.36535 -75.84312 18408 ft 376 kts 173°
2026-05-06 15:48 8.33985 -75.84137 19789 ft 360 kts 173°
2026-05-06 15:48 8.31504 -75.83966 20706 ft 357 kts 174°
2026-05-06 15:48 8.29032 -75.83792 21087 ft 356 kts 174°
2026-05-06 15:48 8.26558 -75.83615 21208 ft 357 kts 174°
2026-05-06 15:49 8.24112 -75.83441 21331 ft 358 kts 174°
2026-05-06 15:49 8.21623 -75.83264 21457 ft 359 kts 174°
2026-05-06 15:49 8.19133 -75.83087 21581 ft 359 kts 174°
2026-05-06 15:49 8.16635 -75.82909 21702 ft 360 kts 174°
2026-05-06 15:50 8.14140 -75.82729 21832 ft 360 kts 174°
2026-05-06 15:50 8.11639 -75.82550 21956 ft 361 kts 174°
2026-05-06 15:50 8.09131 -75.82372 22083 ft 361 kts 174°
2026-05-06 15:50 8.06622 -75.82194 22205 ft 362 kts 174°
2026-05-06 15:51 8.04078 -75.82013 22339 ft 375 kts 174°
2026-05-06 15:51 8.01416 -75.81818 22463 ft 392 kts 174°
2026-05-06 15:51 7.98642 -75.81588 22597 ft 407 kts 171°
2026-05-06 15:51 7.95799 -75.81118 22725 ft 421 kts 168°
2026-05-06 15:52 7.92877 -75.80612 22927 ft 429 kts 169°
2026-05-06 15:52 7.89902 -75.80096 22988 ft 441 kts 169°
2026-05-06 15:52 7.86849 -75.79566 22990 ft 449 kts 169°
2026-05-06 15:52 7.83764 -75.79028 22989 ft 451 kts 169°
2026-05-06 15:53 7.80674 -75.78490 22999 ft 451 kts 169°
2026-05-06 15:53 7.77580 -75.77952 22998 ft 451 kts 169°
2026-05-06 15:53 7.74483 -75.77410 23004 ft 451 kts 169°
2026-05-06 15:53 7.71392 -75.76869 23026 ft 451 kts 169°
2026-05-06 15:54 7.68296 -75.76328 23027 ft 452 kts 168°
2026-05-06 15:54 7.65199 -75.75790 23013 ft 452 kts 169°
2026-05-06 15:54 7.62104 -75.75254 23025 ft 451 kts 169°
2026-05-06 15:54 7.59051 -75.74721 23034 ft 451 kts 169°
2026-05-06 15:55 7.55959 -75.74179 23029 ft 451 kts 169°
2026-05-06 15:55 7.52869 -75.73638 23030 ft 451 kts 169°
2026-05-06 15:55 7.49783 -75.73099 23030 ft 450 kts 169°
2026-05-06 15:55 7.46696 -75.72562 23028 ft 450 kts 169°
2026-05-06 15:56 7.43612 -75.72027 23032 ft 450 kts 169°
2026-05-06 15:56 7.40522 -75.71492 23029 ft 450 kts 169°
2026-05-06 15:56 7.37433 -75.70957 23033 ft 450 kts 169°
2026-05-06 15:56 7.34347 -75.70424 23037 ft 450 kts 169°
2026-05-06 15:57 7.31262 -75.69892 23040 ft 450 kts 169°
2026-05-06 15:57 7.28175 -75.69357 23046 ft 450 kts 169°
2026-05-06 15:57 7.25090 -75.68820 23049 ft 450 kts 169°
2026-05-06 15:57 7.22007 -75.68282 23054 ft 450 kts 169°
2026-05-06 15:58 7.18924 -75.67744 23059 ft 450 kts 169°
2026-05-06 15:58 7.15841 -75.67206 23063 ft 449 kts 169°
2026-05-06 15:58 7.12764 -75.66666 23070 ft 449 kts 169°
2026-05-06 15:58 7.09681 -75.66125 23073 ft 450 kts 169°
2026-05-06 15:59 7.06598 -75.65588 23076 ft 450 kts 169°
2026-05-06 15:59 7.03512 -75.65055 23084 ft 450 kts 169°
2026-05-06 15:59 7.00431 -75.64525 23091 ft 449 kts 169°
2026-05-06 15:59 6.97352 -75.63995 23096 ft 449 kts 169°
2026-05-06 16:00 6.94273 -75.63462 23099 ft 448 kts 169°
2026-05-06 16:00 6.91199 -75.62929 23104 ft 449 kts 169°
2026-05-06 16:00 6.88122 -75.62395 23109 ft 449 kts 169°
2026-05-06 16:00 6.85046 -75.61858 23114 ft 449 kts 169°
2026-05-06 16:01 6.81980 -75.61319 23121 ft 448 kts 169°
2026-05-06 16:01 6.78950 -75.60787 23126 ft 448 kts 169°
2026-05-06 16:01 6.75874 -75.60257 23132 ft 448 kts 169°
2026-05-06 16:01 6.72796 -75.59736 23135 ft 448 kts 169°
2026-05-06 16:02 6.69720 -75.59223 23142 ft 448 kts 169°
2026-05-06 16:02 6.66639 -75.58708 23153 ft 448 kts 169°
2026-05-06 16:02 6.63563 -75.58190 23177 ft 448 kts 169°
2026-05-06 16:02 6.60487 -75.57670 23181 ft 448 kts 169°
2026-05-06 16:03 6.57409 -75.57148 23260 ft 449 kts 169°
2026-05-06 16:03 6.54325 -75.56624 23275 ft 450 kts 169°
2026-05-06 16:03 6.51234 -75.56100 23284 ft 450 kts 169°
2026-05-06 16:03 6.48144 -75.55575 23289 ft 450 kts 169°
2026-05-06 16:04 6.45053 -75.55051 23284 ft 449 kts 169°
2026-05-06 16:04 6.41996 -75.54531 22869 ft 442 kts 169°
2026-05-06 16:04 6.38964 -75.54138 22186 ft 438 kts 175°
2026-05-06 16:04 6.35936 -75.54072 21524 ft 434 kts 178°
2026-05-06 16:05 6.32937 -75.54022 20869 ft 429 kts 177°
2026-05-06 16:05 6.29969 -75.53972 20206 ft 424 kts 178°
2026-05-06 16:05 6.27033 -75.53920 19538 ft 419 kts 177°
2026-05-06 16:05 6.24144 -75.53866 18758 ft 414 kts 177°
2026-05-06 16:06 6.21271 -75.53815 18072 ft 410 kts 176°
2026-05-06 16:06 6.18435 -75.53761 17333 ft 406 kts 177°
2026-05-06 16:06 6.15648 -75.53714 17083 ft 393 kts 177°
2026-05-06 16:06 6.13005 -75.53669 16957 ft 378 kts 176°
2026-05-06 16:07 6.10423 -75.53642 16833 ft 364 kts 177°
2026-05-06 16:07 6.07936 -75.53656 16707 ft 351 kts 178°
2026-05-06 16:07 6.05534 -75.53688 16577 ft 340 kts 178°
2026-05-06 16:07 6.03204 -75.53725 16454 ft 330 kts 178°
2026-05-06 16:08 6.00931 -75.53757 16196 ft 325 kts 178°
2026-05-06 16:08 5.98682 -75.53781 15869 ft 322 kts 178°
2026-05-06 16:08 5.96450 -75.53802 15549 ft 320 kts 178°
2026-05-06 16:08 5.94233 -75.53822 15249 ft 317 kts 178°
2026-05-06 16:09 5.92089 -75.53843 15116 ft 298 kts 178°
2026-05-06 16:09 5.90132 -75.53579 14962 ft 274 kts 156°
2026-05-06 16:09 5.88582 -75.52577 14543 ft 262 kts 130°
2026-05-06 16:09 5.87680 -75.51027 14085 ft 257 kts 105°
2026-05-06 16:10 5.87495 -75.49259 13581 ft 256 kts 90°
2026-05-06 16:10 5.87516 -75.47483 13210 ft 249 kts 91°
2026-05-06 16:10 5.87536 -75.45815 12929 ft 231 kts 90°
2026-05-06 16:10 5.87609 -75.44215 12495 ft 231 kts 79°
2026-05-06 16:11 5.88379 -75.42840 12064 ft 226 kts 44°
2026-05-06 16:11 5.89752 -75.42176 11811 ft 219 kts 10°
2026-05-06 16:11 5.91261 -75.42130 11536 ft 215 kts
2026-05-06 16:11 5.92744 -75.42153 11261 ft 211 kts
2026-05-06 16:12 5.94196 -75.42167 10989 ft 206 kts
2026-05-06 16:12 5.95620 -75.42177 10720 ft 203 kts
2026-05-06 16:12 5.97023 -75.42187 10447 ft 200 kts
2026-05-06 16:12 5.98408 -75.42195 10183 ft 198 kts
2026-05-06 16:13 5.99775 -75.42205 9916 ft 196 kts
2026-05-06 16:13 6.01138 -75.42213 9661 ft 195 kts
2026-05-06 16:13 6.02463 -75.42221 9416 ft 184 kts
2026-05-06 16:13 6.03687 -75.42230 9175 ft 169 kts
2026-05-06 16:14 6.04813 -75.42238 8970 ft 161 kts 360°
2026-05-06 16:14 6.05925 -75.42245 8736 ft 158 kts
2026-05-06 16:14 6.07015 -75.42251 8532 ft 156 kts
2026-05-06 16:14 6.08099 -75.42258 8332 ft 156 kts
2026-05-06 16:15 6.09186 -75.42265 8127 ft 156 kts
2026-05-06 16:15 6.10265 -75.42272 7916 ft 154 kts
2026-05-06 16:15 6.11338 -75.42280 7709 ft 154 kts 359°
2026-05-06 16:15 6.12407 -75.42290 7497 ft 154 kts
2026-05-06 16:16 6.13470 -75.42291 7300 ft 152 kts 359°
2026-05-06 16:16 6.14531 -75.42302 7097 ft 152 kts 359°
2026-05-06 16:16 6.15568 -75.42307 6983 ft 139 kts 360°
2026-05-06 16:16 6.16379 -75.42313 6989 ft 92 kts 359°
2026-05-06 16:17 6.16832 -75.42317 7016 ft 34 kts 358°
2026-05-06 16:17 6.17030 -75.42368 7020 ft 27 kts 335°
2026-05-06 16:17 6.17152 -75.42439 7017 ft 15 kts 328°
2026-05-06 16:17 6.17193 -75.42513 7017 ft 14 kts 268°
2026-05-06 16:18 6.17180 -75.42601 7017 ft 11 kts 234°
2026-05-06 16:18 6.17117 -75.42614 7017 ft 6 kts 176°
2026-05-06 16:18 6.17058 -75.42630 7017 ft 10 kts 214°
2026-05-06 16:18 6.17065 -75.42683 7016 ft 4 kts 295°
2026-05-06 16:19 6.17070 -75.42695 7016 ft 0 kts 294°